Time,TemperatureF,DewpointF,PressureIn,WindDirection,WindDirectionDegrees,WindSpeedMPH,WindSpeedGustMPH,Humidity,HourlyPrecipIn,Conditions,Clouds,dailyrainin,SoftwareType,DateUTC
2013-07-16 00:01:00,73.1,73.0,30.11,WSW,247,2.0,2.0,100,0.00,,,0.00,Rainwise IP-100,2013-07-16 04:01:00,
2013-07-16 00:06:00,73.2,73.0,30.11,WSW,247,2.0,2.0,100,0.00,,,0.00,Rainwise IP-100,2013-07-16 04:06:00,
2013-07-16 00:11:00,73.2,73.0,30.11,WSW,247,1.0,1.0,100,0.00,,,0.00,Rainwise IP-100,2013-07-16 04:11:00,
2013-07-16 00:16:00,73.2,73.0,30.11,WSW,247,1.0,2.0,100,0.00,,,0.00,Rainwise IP-100,2013-07-16 04:16:00,
2013-07-16 00:21:00,73.2,73.0,30.11,WSW,247,2.0,2.0,100,0.00,,,0.00,Rainwise IP-100,2013-07-16 04:21:00,
2013-07-16 00:26:00,73.2,73.0,30.11,WSW,247,2.0,2.0,100,0.00,,,0.00,Rainwise IP-100,2013-07-16 04:26:00,
2013-07-16 00:31:00,73.2,73.0,30.11,WSW,247,0.0,1.0,100,0.00,,,0.00,Rainwise IP-100,2013-07-16 04:31:00,
2013-07-16 00:36:00,73.1,73.0,30.11,WSW,247,0.0,1.0,100,0.00,,,0.00,Rainwise IP-100,2013-07-16 04:36:00,
2013-07-16 00:41:00,73.0,73.0,30.11,WSW,247,0.0,1.0,100,0.00,,,0.00,Rainwise IP-100,2013-07-16 04:41:00,
2013-07-16 00:46:00,72.8,72.0,30.11,WSW,247,0.0,1.0,100,0.00,,,0.00,Rainwise IP-100,2013-07-16 04:46:00,
2013-07-16 00:51:00,72.7,72.0,30.11,WSW,247,0.0,0.0,100,0.00,,,0.00,Rainwise IP-100,2013-07-16 04:51:00,
2013-07-16 00:56:00,72.6,72.0,30.10,WSW,247,0.0,1.0,100,0.00,,,0.00,Rainwise IP-100,2013-07-16 04:56:00,
2013-07-16 01:01:00,72.6,72.0,30.10,WSW,247,0.0,1.0,100,0.00,,,0.00,Rainwise IP-100,2013-07-16 05:01:00,
2013-07-16 01:06:00,72.6,72.0,30.10,WSW,247,0.0,1.0,100,0.00,,,0.00,Rainwise IP-100,2013-07-16 05:06:00,
2013-07-16 01:11:00,72.5,72.0,30.11,WSW,247,0.0,0.0,100,0.00,,,0.00,Rainwise IP-100,2013-07-16 05:11:00,
2013-07-16 01:16:00,72.5,72.0,30.10,WSW,247,2.0,2.0,100,0.00,,,0.00,Rainwise IP-100,2013-07-16 05:16:00,
2013-07-16 01:21:00,72.5,72.0,30.10,WSW,247,0.0,1.0,100,0.00,,,0.00,Rainwise IP-100,2013-07-16 05:21:00,
2013-07-16 01:26:00,72.5,72.0,30.10,WSW,247,0.0,1.0,100,0.00,,,0.00,Rainwise IP-100,2013-07-16 05:26:00,
2013-07-16 01:31:00,72.7,72.0,30.10,WSW,247,1.0,1.0,100,0.00,,,0.00,Rainwise IP-100,2013-07-16 05:31:00,
2013-07-16 01:36:00,72.8,72.0,30.10,WSW,247,1.0,2.0,100,0.00,,,0.00,Rainwise IP-100,2013-07-16 05:36:00,
2013-07-16 01:41:00,72.8,72.0,30.10,WSW,247,1.0,1.0,100,0.00,,,0.00,Rainwise IP-100,2013-07-16 05:41:00,
2013-07-16 01:46:00,72.9,73.0,30.10,WSW,247,1.0,2.0,100,0.00,,,0.00,Rainwise IP-100,2013-07-16 05:46:00,
2013-07-16 01:51:00,72.9,73.0,30.10,WSW,247,0.0,1.0,100,0.00,,,0.00,Rainwise IP-100,2013-07-16 05:51:00,
2013-07-16 01:56:00,72.8,72.0,30.10,WSW,247,0.0,1.0,100,0.00,,,0.00,Rainwise IP-100,2013-07-16 05:56:00,
2013-07-16 02:01:00,72.6,72.0,30.10,WSW,247,0.0,1.0,100,0.00,,,0.00,Rainwise IP-100,2013-07-16 06:01:00,
2013-07-16 02:06:00,72.6,72.0,30.10,WNW,292,0.0,2.0,100,0.00,,,0.00,Rainwise IP-100,2013-07-16 06:06:00,
2013-07-16 02:11:00,72.7,72.0,30.10,WNW,292,0.0,1.0,100,0.00,,,0.00,Rainwise IP-100,2013-07-16 06:11:00,
2013-07-16 02:16:00,72.7,72.0,30.10,WNW,292,0.0,1.0,100,0.00,,,0.00,Rainwise IP-100,2013-07-16 06:16:00,
2013-07-16 02:21:00,72.8,72.0,30.10,WNW,292,0.0,0.0,100,0.00,,,0.00,Rainwise IP-100,2013-07-16 06:21:00,
2013-07-16 02:26:00,72.8,72.0,30.10,WNW,292,0.0,0.0,100,0.00,,,0.00,Rainwise IP-100,2013-07-16 06:26:00,
2013-07-16 02:31:00,72.7,72.0,30.10,North,360,0.0,1.0,100,0.00,,,0.00,Rainwise IP-100,2013-07-16 06:31:00,
2013-07-16 02:36:00,72.7,72.0,30.10,North,360,0.0,2.0,100,0.00,,,0.00,Rainwise IP-100,2013-07-16 06:36:00,
2013-07-16 02:41:00,72.8,72.0,30.09,WNW,292,0.0,1.0,100,0.00,,,0.00,Rainwise IP-100,2013-07-16 06:41:00,
2013-07-16 02:46:00,72.8,72.0,30.10,NNW,337,0.0,1.0,100,0.00,,,0.00,Rainwise IP-100,2013-07-16 06:46:00,
2013-07-16 02:51:00,72.9,73.0,30.10,WNW,292,0.0,2.0,100,0.00,,,0.00,Rainwise IP-100,2013-07-16 06:51:00,
2013-07-16 02:56:00,72.9,73.0,30.09,WNW,292,2.0,3.0,100,0.00,,,0.00,Rainwise IP-100,2013-07-16 06:56:00,
2013-07-16 03:01:00,72.9,73.0,30.10,NNW,337,2.0,2.0,100,0.00,,,0.00,Rainwise IP-100,2013-07-16 07:01:00,
2013-07-16 03:06:00,72.9,73.0,30.10,NW,315,0.0,2.0,100,0.00,,,0.00,Rainwise IP-100,2013-07-16 07:06:00,
2013-07-16 03:11:00,72.9,73.0,30.10,NNW,337,0.0,2.0,100,0.00,,,0.00,Rainwise IP-100,2013-07-16 07:11:00,
2013-07-16 03:16:00,72.9,73.0,30.09,NNW,337,3.0,4.0,100,0.00,,,0.00,Rainwise IP-100,2013-07-16 07:16:00,
2013-07-16 03:21:00,73.0,73.0,30.10,WNW,292,0.0,4.0,100,0.00,,,0.00,Rainwise IP-100,2013-07-16 07:21:00,
2013-07-16 03:26:00,73.0,73.0,30.09,NNW,337,3.0,4.0,100,0.00,,,0.00,Rainwise IP-100,2013-07-16 07:26:00,
2013-07-16 03:31:00,73.0,73.0,30.09,North,360,4.0,4.0,100,0.00,,,0.00,Rainwise IP-100,2013-07-16 07:31:00,
2013-07-16 03:36:00,73.0,73.0,30.09,NNW,337,0.0,4.0,100,0.00,,,0.00,Rainwise IP-100,2013-07-16 07:36:00,
2013-07-16 03:41:00,73.1,73.0,30.09,NNW,337,2.0,5.0,100,0.00,,,0.00,Rainwise IP-100,2013-07-16 07:41:00,
2013-07-16 03:46:00,73.0,73.0,30.10,NNW,337,2.0,4.0,100,0.00,,,0.00,Rainwise IP-100,2013-07-16 07:46:00,
2013-07-16 03:51:00,72.9,73.0,30.09,WNW,292,2.0,3.0,100,0.00,,,0.00,Rainwise IP-100,2013-07-16 07:51:00,
2013-07-16 03:56:00,72.8,72.0,30.10,North,360,1.0,3.0,99,0.00,,,0.00,Rainwise IP-100,2013-07-16 07:56:00,
2013-07-16 04:01:00,72.7,72.0,30.09,North,360,4.0,4.0,99,0.00,,,0.00,Rainwise IP-100,2013-07-16 08:01:00,
2013-07-16 04:06:00,72.8,72.0,30.09,NNW,337,3.0,7.0,98,0.00,,,0.00,Rainwise IP-100,2013-07-16 08:06:00,
2013-07-16 04:11:00,73.1,72.0,30.09,NNW,337,6.0,6.0,97,0.00,,,0.00,Rainwise IP-100,2013-07-16 08:11:00,
2013-07-16 04:16:00,73.3,72.0,30.09,NNW,337,3.0,7.0,96,0.00,,,0.00,Rainwise IP-100,2013-07-16 08:16:00,
2013-07-16 04:21:00,73.5,72.0,30.10,NNW,337,4.0,7.0,95,0.00,,,0.00,Rainwise IP-100,2013-07-16 08:21:00,
2013-07-16 04:26:00,73.6,71.0,30.10,North,360,2.0,8.0,93,0.00,,,0.00,Rainwise IP-100,2013-07-16 08:26:00,
2013-07-16 04:31:00,73.7,71.0,30.10,North,360,4.0,7.0,92,0.00,,,0.00,Rainwise IP-100,2013-07-16 08:31:00,
2013-07-16 04:36:00,73.8,71.0,30.09,NNW,337,3.0,7.0,91,0.00,,,0.00,Rainwise IP-100,2013-07-16 08:36:00,
2013-07-16 04:41:00,73.9,71.0,30.10,NNW,337,4.0,7.0,90,0.00,,,0.00,Rainwise IP-100,2013-07-16 08:41:00,
2013-07-16 04:46:00,74.0,71.0,30.10,NNW,337,8.0,8.0,89,0.00,,,0.00,Rainwise IP-100,2013-07-16 08:46:00,
2013-07-16 04:51:00,73.9,71.0,30.10,NNW,337,5.0,8.0,89,0.00,,,0.00,Rainwise IP-100,2013-07-16 08:51:00,
2013-07-16 04:56:00,73.6,70.0,30.10,NNW,337,5.0,6.0,89,0.00,,,0.00,Rainwise IP-100,2013-07-16 08:56:00,
2013-07-16 05:01:00,73.5,70.0,30.10,NNE,22,5.0,8.0,89,0.00,,,0.00,Rainwise IP-100,2013-07-16 09:01:00,
2013-07-16 05:06:00,73.5,70.0,30.10,NNE,22,5.0,7.0,88,0.00,,,0.00,Rainwise IP-100,2013-07-16 09:06:00,
2013-07-16 05:11:00,73.6,70.0,30.10,NNW,337,3.0,5.0,88,0.00,,,0.00,Rainwise IP-100,2013-07-16 09:11:00,
2013-07-16 05:16:00,73.6,70.0,30.11,North,360,1.0,5.0,88,0.00,,,0.00,Rainwise IP-100,2013-07-16 09:16:00,
2013-07-16 05:21:00,73.4,69.0,30.11,North,360,4.0,5.0,88,0.00,,,0.00,Rainwise IP-100,2013-07-16 09:21:00,
2013-07-16 05:26:00,73.4,69.0,30.10,North,360,5.0,6.0,87,0.00,,,0.00,Rainwise IP-100,2013-07-16 09:26:00,
2013-07-16 05:31:00,73.4,69.0,30.11,North,360,2.0,6.0,87,0.00,,,0.00,Rainwise IP-100,2013-07-16 09:31:00,
2013-07-16 05:36:00,73.4,69.0,30.11,North,360,3.0,5.0,87,0.00,,,0.00,Rainwise IP-100,2013-07-16 09:36:00,
2013-07-16 05:41:00,73.4,69.0,30.11,North,360,4.0,6.0,86,0.00,,,0.00,Rainwise IP-100,2013-07-16 09:41:00,
2013-07-16 05:46:00,73.5,69.0,30.11,North,360,4.0,6.0,86,0.00,,,0.00,Rainwise IP-100,2013-07-16 09:46:00,
2013-07-16 05:51:00,73.5,69.0,30.11,NNW,337,2.0,5.0,86,0.00,,,0.00,Rainwise IP-100,2013-07-16 09:51:00,
2013-07-16 05:56:00,73.5,69.0,30.11,NNE,22,3.0,9.0,85,0.00,,,0.00,Rainwise IP-100,2013-07-16 09:56:00,
2013-07-16 06:01:00,73.6,69.0,30.11,NNW,337,2.0,7.0,85,0.00,,,0.00,Rainwise IP-100,2013-07-16 10:01:00,
2013-07-16 06:06:00,73.6,69.0,30.11,North,360,2.0,6.0,85,0.00,,,0.00,Rainwise IP-100,2013-07-16 10:06:00,
2013-07-16 06:11:00,73.5,69.0,30.11,North,360,2.0,7.0,85,0.00,,,0.00,Rainwise IP-100,2013-07-16 10:11:00,
2013-07-16 06:16:00,73.2,69.0,30.11,NNW,337,3.0,5.0,86,0.00,,,0.00,Rainwise IP-100,2013-07-16 10:16:00,
2013-07-16 06:21:00,73.0,69.0,30.11,North,360,2.0,5.0,87,0.00,,,0.00,Rainwise IP-100,2013-07-16 10:21:00,
2013-07-16 06:26:00,73.1,69.0,30.11,North,360,6.0,6.0,87,0.00,,,0.00,Rainwise IP-100,2013-07-16 10:26:00,
2013-07-16 06:31:00,73.6,69.0,30.11,NNW,337,6.0,7.0,86,0.00,,,0.00,Rainwise IP-100,2013-07-16 10:31:00,
2013-07-16 06:36:00,74.0,69.0,30.11,NNW,337,2.0,6.0,85,0.00,,,0.00,Rainwise IP-100,2013-07-16 10:36:00,
2013-07-16 06:41:00,73.9,69.0,30.11,North,360,2.0,5.0,85,0.00,,,0.00,Rainwise IP-100,2013-07-16 10:41:00,
2013-07-16 06:46:00,73.9,69.0,30.12,NW,315,3.0,5.0,85,0.00,,,0.00,Rainwise IP-100,2013-07-16 10:46:00,
2013-07-16 06:51:00,74.0,69.0,30.12,NNE,22,6.0,7.0,85,0.00,,,0.00,Rainwise IP-100,2013-07-16 10:51:00,
2013-07-16 06:56:00,74.3,69.0,30.12,NNW,337,1.0,7.0,85,0.00,,,0.00,Rainwise IP-100,2013-07-16 10:56:00,
2013-07-16 07:01:00,74.7,69.0,30.12,North,360,3.0,7.0,84,0.00,,,0.00,Rainwise IP-100,2013-07-16 11:01:00,
2013-07-16 07:06:00,75.2,70.0,30.12,North,360,2.0,5.0,84,0.00,,,0.00,Rainwise IP-100,2013-07-16 11:06:00,
2013-07-16 07:11:00,76.0,70.0,30.12,North,360,1.0,7.0,83,0.00,,,0.00,Rainwise IP-100,2013-07-16 11:11:00,
2013-07-16 07:16:00,76.7,70.0,30.12,NNW,337,0.0,5.0,81,0.00,,,0.00,Rainwise IP-100,2013-07-16 11:16:00,
2013-07-16 07:21:00,77.2,71.0,30.12,North,360,0.0,7.0,80,0.00,,,0.00,Rainwise IP-100,2013-07-16 11:21:00,
2013-07-16 07:26:00,78.1,71.0,30.12,North,360,2.0,6.0,79,0.00,,,0.00,Rainwise IP-100,2013-07-16 11:26:00,
2013-07-16 07:31:00,78.7,71.0,30.12,NNE,22,4.0,5.0,77,0.00,,,0.00,Rainwise IP-100,2013-07-16 11:31:00,
2013-07-16 07:36:00,79.2,71.0,30.13,NNW,337,3.0,5.0,76,0.00,,,0.00,Rainwise IP-100,2013-07-16 11:36:00,
2013-07-16 07:41:00,79.8,71.0,30.12,NNW,337,1.0,4.0,75,0.00,,,0.00,Rainwise IP-100,2013-07-16 11:41:00,
2013-07-16 07:46:00,80.2,71.0,30.13,NNW,337,2.0,6.0,74,0.00,,,0.00,Rainwise IP-100,2013-07-16 11:46:00,
2013-07-16 07:51:00,80.3,71.0,30.13,NW,315,2.0,5.0,74,0.00,,,0.00,Rainwise IP-100,2013-07-16 11:51:00,
2013-07-16 07:56:00,80.7,71.0,30.13,NNW,337,3.0,7.0,73,0.00,,,0.00,Rainwise IP-100,2013-07-16 11:56:00,
2013-07-16 08:01:00,81.1,71.0,30.13,NNW,337,3.0,7.0,73,0.00,,,0.00,Rainwise IP-100,2013-07-16 12:01:00,
2013-07-16 08:06:00,81.3,72.0,30.12,NNE,22,2.0,6.0,73,0.00,,,0.00,Rainwise IP-100,2013-07-16 12:06:00,
2013-07-16 08:11:00,81.7,72.0,30.13,NNE,22,4.0,7.0,73,0.00,,,0.00,Rainwise IP-100,2013-07-16 12:11:00,
2013-07-16 08:16:00,82.3,72.0,30.13,North,360,1.0,5.0,71,0.00,,,0.00,Rainwise IP-100,2013-07-16 12:16:00,
2013-07-16 08:21:00,82.8,72.0,30.12,NNW,337,2.0,4.0,70,0.00,,,0.00,Rainwise IP-100,2013-07-16 12:21:00,
2013-07-16 08:26:00,83.1,72.0,30.13,NNW,337,3.0,5.0,70,0.00,,,0.00,Rainwise IP-100,2013-07-16 12:26:00,
2013-07-16 08:31:00,83.2,72.0,30.13,NNE,22,0.0,6.0,70,0.00,,,0.00,Rainwise IP-100,2013-07-16 12:31:00,
2013-07-16 08:36:00,83.3,72.0,30.13,NNE,22,0.0,5.0,70,0.00,,,0.00,Rainwise IP-100,2013-07-16 12:36:00,
2013-07-16 08:41:00,83.7,73.0,30.13,North,360,3.0,5.0,70,0.00,,,0.00,Rainwise IP-100,2013-07-16 12:41:00,
2013-07-16 08:46:00,84.2,73.0,30.13,NNE,22,2.0,6.0,69,0.00,,,0.00,Rainwise IP-100,2013-07-16 12:46:00,
2013-07-16 08:51:00,84.2,72.0,30.13,NNW,337,3.0,6.0,68,0.00,,,0.00,Rainwise IP-100,2013-07-16 12:51:00,
2013-07-16 08:56:00,84.1,72.0,30.13,NNE,22,3.0,8.0,67,0.00,,,0.00,Rainwise IP-100,2013-07-16 12:56:00,
2013-07-16 09:01:00,84.3,72.0,30.13,NNE,22,5.0,6.0,67,0.00,,,0.00,Rainwise IP-100,2013-07-16 13:01:00,
2013-07-16 09:06:00,84.7,72.0,30.13,NNE,22,1.0,8.0,67,0.00,,,0.00,Rainwise IP-100,2013-07-16 13:06:00,
2013-07-16 09:11:00,85.0,72.0,30.13,NW,315,3.0,8.0,67,0.00,,,0.00,Rainwise IP-100,2013-07-16 13:11:00,
2013-07-16 09:16:00,85.4,73.0,30.13,North,360,5.0,5.0,67,0.00,,,0.00,Rainwise IP-100,2013-07-16 13:16:00,
2013-07-16 09:21:00,85.6,72.0,30.13,NNW,337,3.0,5.0,66,0.00,,,0.00,Rainwise IP-100,2013-07-16 13:21:00,
2013-07-16 09:26:00,85.7,73.0,30.12,NNE,22,4.0,4.0,66,0.00,,,0.00,Rainwise IP-100,2013-07-16 13:26:00,
2013-07-16 09:31:00,86.0,73.0,30.13,North,360,0.0,4.0,66,0.00,,,0.00,Rainwise IP-100,2013-07-16 13:31:00,
2013-07-16 09:36:00,87.0,73.0,30.12,NNW,337,1.0,4.0,65,0.00,,,0.00,Rainwise IP-100,2013-07-16 13:36:00,
2013-07-16 09:41:00,87.6,73.0,30.12,NW,315,0.0,6.0,64,0.00,,,0.00,Rainwise IP-100,2013-07-16 13:41:00,
2013-07-16 09:46:00,87.2,73.0,30.12,NE,45,3.0,5.0,63,0.00,,,0.00,Rainwise IP-100,2013-07-16 13:46:00,
2013-07-16 09:51:00,86.9,72.0,30.12,NW,315,2.0,6.0,62,0.00,,,0.00,Rainwise IP-100,2013-07-16 13:51:00,
2013-07-16 09:56:00,86.8,71.0,30.12,NNW,337,0.0,1.0,61,0.00,,,0.00,Rainwise IP-100,2013-07-16 13:56:00,
2013-07-16 10:01:00,87.0,72.0,30.12,NE,45,0.0,4.0,61,0.00,,,0.00,Rainwise IP-100,2013-07-16 14:01:00,
2013-07-16 10:06:00,87.6,73.0,30.12,NNE,22,2.0,5.0,62,0.00,,,0.00,Rainwise IP-100,2013-07-16 14:06:00,
2013-07-16 10:11:00,87.7,72.0,30.12,ENE,67,0.0,4.0,61,0.00,,,0.00,Rainwise IP-100,2013-07-16 14:11:00,
2013-07-16 10:16:00,87.7,72.0,30.12,ENE,67,1.0,4.0,60,0.00,,,0.00,Rainwise IP-100,2013-07-16 14:16:00,
2013-07-16 10:21:00,88.1,72.0,30.12,NE,45,0.0,4.0,60,0.00,,,0.00,Rainwise IP-100,2013-07-16 14:21:00,
2013-07-16 10:26:00,88.8,72.0,30.12,NNW,337,3.0,6.0,59,0.00,,,0.00,Rainwise IP-100,2013-07-16 14:26:00,
2013-07-16 10:31:00,88.8,72.0,30.12,NE,45,3.0,7.0,58,0.00,,,0.00,Rainwise IP-100,2013-07-16 14:31:00,
2013-07-16 10:36:00,88.5,72.0,30.12,NNE,22,0.0,6.0,58,0.00,,,0.00,Rainwise IP-100,2013-07-16 14:36:00,
2013-07-16 10:41:00,88.4,72.0,30.12,NNW,337,0.0,4.0,59,0.00,,,0.00,Rainwise IP-100,2013-07-16 14:41:00,
2013-07-16 10:46:00,88.7,72.0,30.12,SSE,157,0.0,4.0,59,0.00,,,0.00,Rainwise IP-100,2013-07-16 14:46:00,
2013-07-16 10:51:00,89.2,73.0,30.12,West,270,0.0,3.0,59,0.00,,,0.00,Rainwise IP-100,2013-07-16 14:51:00,
2013-07-16 10:56:00,89.6,73.0,30.11,NNW,337,0.0,5.0,59,0.00,,,0.00,Rainwise IP-100,2013-07-16 14:56:00,
2013-07-16 11:01:00,89.9,72.0,30.11,SSW,202,2.0,5.0,57,0.00,,,0.00,Rainwise IP-100,2013-07-16 15:01:00,
2013-07-16 11:06:00,90.0,72.0,30.12,North,360,1.0,4.0,56,0.00,,,0.00,Rainwise IP-100,2013-07-16 15:06:00,
2013-07-16 11:11:00,90.1,71.0,30.12,WNW,292,1.0,4.0,55,0.00,,,0.00,Rainwise IP-100,2013-07-16 15:11:00,
2013-07-16 11:16:00,89.7,71.0,30.12,North,360,4.0,4.0,55,0.00,,,0.00,Rainwise IP-100,2013-07-16 15:16:00,
2013-07-16 11:21:00,89.8,72.0,30.12,NNE,22,1.0,4.0,56,0.00,,,0.00,Rainwise IP-100,2013-07-16 15:21:00,
2013-07-16 11:26:00,90.2,72.0,30.11,NNW,337,2.0,7.0,55,0.00,,,0.00,Rainwise IP-100,2013-07-16 15:26:00,
2013-07-16 11:31:00,90.3,72.0,30.12,NNE,22,0.0,4.0,55,0.00,,,0.00,Rainwise IP-100,2013-07-16 15:31:00,
2013-07-16 11:36:00,90.4,72.0,30.12,WSW,247,6.0,6.0,55,0.00,,,0.00,Rainwise IP-100,2013-07-16 15:36:00,
2013-07-16 11:41:00,90.2,72.0,30.11,North,360,2.0,9.0,55,0.00,,,0.00,Rainwise IP-100,2013-07-16 15:41:00,
2013-07-16 11:46:00,89.7,71.0,30.11,West,270,2.0,6.0,55,0.00,,,0.00,Rainwise IP-100,2013-07-16 15:46:00,
2013-07-16 11:51:00,89.7,72.0,30.11,SSW,202,3.0,6.0,57,0.00,,,0.00,Rainwise IP-100,2013-07-16 15:51:00,
2013-07-16 11:56:00,88.8,72.0,30.11,WSW,247,3.0,6.0,59,0.00,,,0.00,Rainwise IP-100,2013-07-16 15:56:00,
2013-07-16 12:01:00,88.0,73.0,30.12,SW,225,2.0,5.0,62,0.00,,,0.00,Rainwise IP-100,2013-07-16 16:01:00,
2013-07-16 12:06:00,88.4,74.0,30.11,South,180,3.0,7.0,63,0.00,,,0.00,Rainwise IP-100,2013-07-16 16:06:00,
2013-07-16 12:11:00,88.6,74.0,30.11,South,180,4.0,6.0,63,0.00,,,0.00,Rainwise IP-100,2013-07-16 16:11:00,
2013-07-16 12:16:00,88.5,74.0,30.11,SSE,157,3.0,6.0,63,0.00,,,0.00,Rainwise IP-100,2013-07-16 16:16:00,
2013-07-16 12:21:00,88.0,73.0,30.11,SSE,157,5.0,5.0,63,0.00,,,0.00,Rainwise IP-100,2013-07-16 16:21:00,
2013-07-16 12:26:00,87.3,73.0,30.11,SSE,157,2.0,6.0,63,0.00,,,0.00,Rainwise IP-100,2013-07-16 16:26:00,
2013-07-16 12:31:00,87.7,73.0,30.11,South,180,4.0,7.0,63,0.00,,,0.00,Rainwise IP-100,2013-07-16 16:31:00,
2013-07-16 12:36:00,88.4,74.0,30.11,North,360,4.0,7.0,63,0.00,,,0.00,Rainwise IP-100,2013-07-16 16:36:00,
2013-07-16 12:41:00,87.9,73.0,30.11,South,180,5.0,5.0,62,0.00,,,0.00,Rainwise IP-100,2013-07-16 16:41:00,
2013-07-16 12:46:00,87.4,72.0,30.11,SSE,157,3.0,5.0,62,0.00,,,0.00,Rainwise IP-100,2013-07-16 16:46:00,
2013-07-16 12:51:00,87.1,72.0,30.11,SSE,157,4.0,6.0,62,0.00,,,0.00,Rainwise IP-100,2013-07-16 16:51:00,
2013-07-16 12:56:00,87.1,72.0,30.11,SW,225,3.0,7.0,63,0.00,,,0.00,Rainwise IP-100,2013-07-16 16:56:00,
2013-07-16 13:01:00,87.4,72.0,30.11,SSW,202,2.0,7.0,62,0.00,,,0.00,Rainwise IP-100,2013-07-16 17:01:00,
2013-07-16 13:06:00,87.2,73.0,30.11,SSE,157,1.0,5.0,63,0.00,,,0.00,Rainwise IP-100,2013-07-16 17:06:00,
2013-07-16 13:11:00,87.0,73.0,30.11,SSE,157,3.0,4.0,65,0.00,,,0.00,Rainwise IP-100,2013-07-16 17:11:00,
2013-07-16 13:16:00,86.9,73.0,30.11,North,360,5.0,5.0,65,0.00,,,0.00,Rainwise IP-100,2013-07-16 17:16:00,
2013-07-16 13:21:00,86.9,73.0,30.10,SSE,157,6.0,6.0,65,0.00,,,0.00,Rainwise IP-100,2013-07-16 17:21:00,
2013-07-16 13:26:00,86.9,73.0,30.11,SSE,157,4.0,7.0,64,0.00,,,0.00,Rainwise IP-100,2013-07-16 17:26:00,
2013-07-16 13:31:00,86.8,73.0,30.11,SSE,157,4.0,6.0,64,0.00,,,0.00,Rainwise IP-100,2013-07-16 17:31:00,
2013-07-16 13:36:00,86.6,72.0,30.10,SSE,157,3.0,7.0,63,0.00,,,0.00,Rainwise IP-100,2013-07-16 17:36:00,
2013-07-16 13:41:00,86.3,72.0,30.11,SSW,202,3.0,5.0,63,0.00,,,0.00,Rainwise IP-100,2013-07-16 17:41:00,
2013-07-16 13:46:00,85.9,72.0,30.10,SSE,157,2.0,6.0,64,0.00,,,0.00,Rainwise IP-100,2013-07-16 17:46:00,
2013-07-16 13:51:00,86.2,72.0,30.11,SSE,157,3.0,4.0,64,0.00,,,0.00,Rainwise IP-100,2013-07-16 17:51:00,
2013-07-16 13:56:00,87.2,73.0,30.10,South,180,4.0,5.0,64,0.00,,,0.00,Rainwise IP-100,2013-07-16 17:56:00,
2013-07-16 14:01:00,88.1,73.0,30.10,SSW,202,4.0,6.0,63,0.00,,,0.00,Rainwise IP-100,2013-07-16 18:01:00,
2013-07-16 14:06:00,88.7,73.0,30.10,South,180,3.0,5.0,60,0.00,,,0.00,Rainwise IP-100,2013-07-16 18:06:00,
2013-07-16 14:11:00,88.5,73.0,30.11,SSE,157,4.0,4.0,60,0.00,,,0.00,Rainwise IP-100,2013-07-16 18:11:00,
2013-07-16 14:16:00,87.8,72.0,30.10,SSE,157,5.0,6.0,60,0.00,,,0.00,Rainwise IP-100,2013-07-16 18:16:00,
2013-07-16 14:21:00,87.6,72.0,30.10,SSW,202,2.0,7.0,61,0.00,,,0.00,Rainwise IP-100,2013-07-16 18:21:00,
2013-07-16 14:26:00,88.1,73.0,30.10,South,180,4.0,6.0,61,0.00,,,0.00,Rainwise IP-100,2013-07-16 18:26:00,
2013-07-16 14:31:00,88.7,73.0,30.10,SSE,157,4.0,6.0,60,0.00,,,0.00,Rainwise IP-100,2013-07-16 18:31:00,
2013-07-16 14:36:00,88.8,73.0,30.10,SSW,202,4.0,5.0,60,0.00,,,0.00,Rainwise IP-100,2013-07-16 18:36:00,
2013-07-16 14:41:00,88.5,73.0,30.10,SSE,157,2.0,4.0,60,0.00,,,0.00,Rainwise IP-100,2013-07-16 18:41:00,
2013-07-16 14:46:00,88.4,73.0,30.10,SW,225,4.0,4.0,60,0.00,,,0.00,Rainwise IP-100,2013-07-16 18:46:00,
2013-07-16 14:51:00,88.7,72.0,30.10,South,180,2.0,4.0,59,0.00,,,0.00,Rainwise IP-100,2013-07-16 18:51:00,
2013-07-16 14:56:00,87.8,72.0,30.10,SSE,157,8.0,8.0,61,0.00,,,0.00,Rainwise IP-100,2013-07-16 18:56:00,
2013-07-16 15:01:00,87.1,72.0,30.10,ENE,67,2.0,8.0,63,0.00,,,0.00,Rainwise IP-100,2013-07-16 19:01:00,
2013-07-16 15:06:00,87.2,72.0,30.10,SSE,157,4.0,8.0,61,0.00,,,0.00,Rainwise IP-100,2013-07-16 19:06:00,
2013-07-16 15:11:00,86.2,71.0,30.11,SSE,157,2.0,6.0,61,0.00,,,0.00,Rainwise IP-100,2013-07-16 19:11:00,
2013-07-16 15:16:00,85.5,71.0,30.11,South,180,3.0,4.0,63,0.00,,,0.00,Rainwise IP-100,2013-07-16 19:16:00,
2013-07-16 15:21:00,86.4,72.0,30.10,SSW,202,4.0,6.0,64,0.00,,,0.00,Rainwise IP-100,2013-07-16 19:21:00,
2013-07-16 15:26:00,87.0,72.0,30.10,SSE,157,4.0,6.0,62,0.00,,,0.00,Rainwise IP-100,2013-07-16 19:26:00,
2013-07-16 15:31:00,86.2,71.0,30.10,SSE,157,3.0,6.0,62,0.00,,,0.00,Rainwise IP-100,2013-07-16 19:31:00,
2013-07-16 15:36:00,85.1,71.0,30.10,SSE,157,2.0,4.0,63,0.00,,,0.00,Rainwise IP-100,2013-07-16 19:36:00,
2013-07-16 15:41:00,85.4,72.0,30.10,South,180,3.0,4.0,64,0.00,,,0.00,Rainwise IP-100,2013-07-16 19:41:00,
2013-07-16 15:46:00,86.2,72.0,30.10,SSE,157,3.0,4.0,64,0.00,,,0.00,Rainwise IP-100,2013-07-16 19:46:00,
2013-07-16 15:51:00,86.6,72.0,30.10,SSE,157,2.0,5.0,64,0.00,,,0.00,Rainwise IP-100,2013-07-16 19:51:00,
2013-07-16 15:56:00,86.3,72.0,30.10,SSE,157,2.0,5.0,63,0.00,,,0.00,Rainwise IP-100,2013-07-16 19:56:00,
2013-07-16 16:01:00,85.9,72.0,30.10,SSE,157,3.0,4.0,64,0.00,,,0.00,Rainwise IP-100,2013-07-16 20:01:00,
2013-07-16 16:04:00,86.1,72.0,30.10,SW,225,4.0,6.0,65,0.00,,,0.00,Rainwise IP-100,2013-07-16 20:04:00,
2013-07-16 16:09:00,87.2,73.0,30.10,SSW,202,4.0,5.0,64,0.00,,,0.00,Rainwise IP-100,2013-07-16 20:09:00,
2013-07-16 16:14:00,87.8,73.0,30.11,SSW,202,4.0,5.0,62,0.00,,,0.00,Rainwise IP-100,2013-07-16 20:14:00,
2013-07-16 16:19:00,88.1,73.0,30.11,South,180,3.0,5.0,62,0.00,,,0.00,Rainwise IP-100,2013-07-16 20:19:00,
2013-07-16 16:24:00,87.8,73.0,30.11,SSW,202,2.0,6.0,63,0.00,,,0.00,Rainwise IP-100,2013-07-16 20:24:00,
2013-07-16 16:29:00,87.3,73.0,30.11,South,180,3.0,5.0,64,0.00,,,0.00,Rainwise IP-100,2013-07-16 20:29:00,
2013-07-16 16:34:00,87.0,73.0,30.11,SSW,202,3.0,4.0,64,0.00,,,0.00,Rainwise IP-100,2013-07-16 20:34:00,
2013-07-16 16:39:00,86.6,72.0,30.11,South,180,3.0,4.0,64,0.00,,,0.00,Rainwise IP-100,2013-07-16 20:39:00,
2013-07-16 16:44:00,86.0,73.0,30.11,SSW,202,2.0,3.0,66,0.00,,,0.00,Rainwise IP-100,2013-07-16 20:44:00,
2013-07-16 16:49:00,85.7,73.0,30.11,SW,225,3.0,5.0,66,0.00,,,0.00,Rainwise IP-100,2013-07-16 20:49:00,
2013-07-16 16:54:00,85.7,73.0,30.11,WSW,247,3.0,6.0,66,0.00,,,0.00,Rainwise IP-100,2013-07-16 20:54:00,
2013-07-16 16:59:00,86.0,72.0,30.11,SSW,202,4.0,7.0,65,0.00,,,0.00,Rainwise IP-100,2013-07-16 20:59:00,
2013-07-16 17:04:00,86.4,72.0,30.11,South,180,4.0,6.0,64,0.00,,,0.00,Rainwise IP-100,2013-07-16 21:04:00,
2013-07-16 17:09:00,86.8,72.0,30.11,SSE,157,4.0,5.0,63,0.00,,,0.00,Rainwise IP-100,2013-07-16 21:09:00,
2013-07-16 17:14:00,87.0,72.0,30.11,SSW,202,2.0,4.0,62,0.00,,,0.00,Rainwise IP-100,2013-07-16 21:14:00,
2013-07-16 17:19:00,87.4,72.0,30.11,SW,225,3.0,5.0,62,0.00,,,0.00,Rainwise IP-100,2013-07-16 21:19:00,
2013-07-16 17:24:00,87.8,72.0,30.11,SSW,202,4.0,5.0,61,0.00,,,0.00,Rainwise IP-100,2013-07-16 21:24:00,
2013-07-16 17:29:00,87.8,72.0,30.10,SSE,157,2.0,4.0,61,0.00,,,0.00,Rainwise IP-100,2013-07-16 21:29:00,
2013-07-16 17:34:00,87.4,72.0,30.10,SSE,157,4.0,4.0,62,0.00,,,0.00,Rainwise IP-100,2013-07-16 21:34:00,
2013-07-16 17:39:00,87.6,73.0,30.10,SSW,202,3.0,4.0,62,0.00,,,0.00,Rainwise IP-100,2013-07-16 21:39:00,
2013-07-16 17:44:00,88.5,73.0,30.10,South,180,2.0,3.0,60,0.00,,,0.00,Rainwise IP-100,2013-07-16 21:44:00,
2013-07-16 17:49:00,88.3,72.0,30.10,South,180,0.0,3.0,59,0.00,,,0.00,Rainwise IP-100,2013-07-16 21:49:00,
2013-07-16 17:54:00,88.1,72.0,30.10,SSW,202,3.0,4.0,59,0.00,,,0.00,Rainwise IP-100,2013-07-16 21:54:00,
2013-07-16 17:59:00,88.7,72.0,30.11,SSE,157,1.0,4.0,59,0.00,,,0.00,Rainwise IP-100,2013-07-16 21:59:00,
2013-07-16 18:04:00,87.7,72.0,30.10,SSE,157,2.0,2.0,60,0.00,,,0.00,Rainwise IP-100,2013-07-16 22:04:00,
2013-07-16 18:09:00,86.9,72.0,30.10,SSE,157,1.0,2.0,61,0.00,,,0.00,Rainwise IP-100,2013-07-16 22:09:00,
2013-07-16 18:14:00,87.8,72.0,30.11,SSW,202,1.0,4.0,61,0.00,,,0.00,Rainwise IP-100,2013-07-16 22:14:00,
2013-07-16 18:19:00,88.6,73.0,30.11,SSW,202,2.0,4.0,60,0.00,,,0.00,Rainwise IP-100,2013-07-16 22:19:00,
2013-07-16 18:24:00,88.5,73.0,30.10,SSW,202,3.0,3.0,60,0.00,,,0.00,Rainwise IP-100,2013-07-16 22:24:00,
2013-07-16 18:29:00,88.4,73.0,30.11,SSW,202,6.0,6.0,61,0.00,,,0.00,Rainwise IP-100,2013-07-16 22:29:00,
2013-07-16 18:34:00,88.0,72.0,30.11,SSW,202,2.0,5.0,60,0.00,,,0.00,Rainwise IP-100,2013-07-16 22:34:00,
2013-07-16 18:39:00,87.5,72.0,30.11,SW,225,1.0,3.0,60,0.00,,,0.00,Rainwise IP-100,2013-07-16 22:39:00,
2013-07-16 18:44:00,87.2,72.0,30.11,South,180,2.0,2.0,62,0.00,,,0.00,Rainwise IP-100,2013-07-16 22:44:00,
2013-07-16 18:49:00,86.9,72.0,30.11,SSE,157,1.0,4.0,63,0.00,,,0.00,Rainwise IP-100,2013-07-16 22:49:00,
2013-07-16 18:54:00,86.2,72.0,30.11,South,180,2.0,4.0,64,0.00,,,0.00,Rainwise IP-100,2013-07-16 22:54:00,
2013-07-16 18:59:00,85.3,72.0,30.11,South,180,0.0,4.0,65,0.00,,,0.00,Rainwise IP-100,2013-07-16 22:59:00,
2013-07-16 19:04:00,84.4,72.0,30.11,South,180,0.0,2.0,67,0.00,,,0.00,Rainwise IP-100,2013-07-16 23:04:00,
2013-07-16 19:09:00,83.3,72.0,30.12,SSE,157,2.0,2.0,70,0.00,,,0.00,Rainwise IP-100,2013-07-16 23:09:00,
2013-07-16 19:14:00,82.5,72.0,30.12,SSE,157,1.0,2.0,72,0.00,,,0.00,Rainwise IP-100,2013-07-16 23:14:00,
2013-07-16 19:19:00,81.2,72.0,30.11,South,180,0.0,2.0,75,0.00,,,0.00,Rainwise IP-100,2013-07-16 23:19:00,
2013-07-16 19:24:00,80.2,72.0,30.11,SSE,157,1.0,1.0,77,0.00,,,0.00,Rainwise IP-100,2013-07-16 23:24:00,
2013-07-16 19:29:00,79.7,73.0,30.12,SSE,157,2.0,2.0,80,0.00,,,0.00,Rainwise IP-100,2013-07-16 23:29:00,
2013-07-16 19:34:00,79.5,73.0,30.12,SSE,157,2.0,2.0,81,0.00,,,0.00,Rainwise IP-100,2013-07-16 23:34:00,
2013-07-16 19:39:00,79.4,73.0,30.12,South,180,0.0,2.0,83,0.00,,,0.00,Rainwise IP-100,2013-07-16 23:39:00,
2013-07-16 19:44:00,78.9,73.0,30.12,South,180,0.0,0.0,84,0.00,,,0.00,Rainwise IP-100,2013-07-16 23:44:00,
2013-07-16 19:49:00,78.4,73.0,30.13,South,180,0.0,0.0,85,0.00,,,0.00,Rainwise IP-100,2013-07-16 23:49:00,
2013-07-16 19:54:00,78.1,73.0,30.13,South,180,0.0,0.0,86,0.00,,,0.00,Rainwise IP-100,2013-07-16 23:54:00,
2013-07-16 19:59:00,77.7,73.0,30.13,South,180,0.0,0.0,87,0.00,,,0.00,Rainwise IP-100,2013-07-16 23:59:00,
2013-07-16 20:04:00,77.3,73.0,30.13,South,180,0.0,0.0,88,0.00,,,0.00,Rainwise IP-100,2013-07-17 00:04:00,
2013-07-16 20:09:00,77.0,73.0,30.13,South,180,0.0,0.0,89,0.00,,,0.00,Rainwise IP-100,2013-07-17 00:09:00,
2013-07-16 20:14:00,76.9,74.0,30.13,South,180,0.0,0.0,90,0.00,,,0.00,Rainwise IP-100,2013-07-17 00:14:00,
2013-07-16 20:19:00,76.6,73.0,30.13,South,180,0.0,0.0,90,0.00,,,0.00,Rainwise IP-100,2013-07-17 00:19:00,
2013-07-16 20:24:00,76.3,72.0,30.12,South,180,0.0,0.0,89,0.00,,,0.00,Rainwise IP-100,2013-07-17 00:24:00,
2013-07-16 20:29:00,76.1,72.0,30.13,South,180,0.0,0.0,89,0.00,,,0.00,Rainwise IP-100,2013-07-17 00:29:00,
2013-07-16 20:34:00,75.8,72.0,30.13,South,180,0.0,0.0,90,0.00,,,0.00,Rainwise IP-100,2013-07-17 00:34:00,
2013-07-16 20:39:00,75.7,72.0,30.13,South,180,0.0,0.0,90,0.00,,,0.00,Rainwise IP-100,2013-07-17 00:39:00,
2013-07-16 20:44:00,75.7,72.0,30.13,South,180,0.0,0.0,90,0.00,,,0.00,Rainwise IP-100,2013-07-17 00:44:00,
2013-07-16 20:49:00,75.6,72.0,30.14,South,180,0.0,0.0,90,0.00,,,0.00,Rainwise IP-100,2013-07-17 00:49:00,
2013-07-16 20:54:00,75.4,72.0,30.14,South,180,0.0,0.0,90,0.00,,,0.00,Rainwise IP-100,2013-07-17 00:54:00,
2013-07-16 20:59:00,75.2,72.0,30.14,WSW,247,2.0,2.0,91,0.00,,,0.00,Rainwise IP-100,2013-07-17 00:59:00,
2013-07-16 21:04:00,75.1,72.0,30.14,WSW,247,1.0,2.0,91,0.00,,,0.00,Rainwise IP-100,2013-07-17 01:04:00,
2013-07-16 21:09:00,75.1,72.0,30.14,WSW,247,0.0,1.0,90,0.00,,,0.00,Rainwise IP-100,2013-07-17 01:09:00,
2013-07-16 21:14:00,75.0,71.0,30.14,WSW,247,0.0,1.0,89,0.00,,,0.00,Rainwise IP-100,2013-07-17 01:14:00,
2013-07-16 21:19:00,75.1,71.0,30.15,WSW,247,0.0,1.0,89,0.00,,,0.00,Rainwise IP-100,2013-07-17 01:19:00,
2013-07-16 21:24:00,75.1,71.0,30.15,WSW,247,0.0,0.0,88,0.00,,,0.00,Rainwise IP-100,2013-07-17 01:24:00,
2013-07-16 21:29:00,75.0,71.0,30.15,WSW,247,0.0,0.0,88,0.00,,,0.00,Rainwise IP-100,2013-07-17 01:29:00,
2013-07-16 21:34:00,74.6,71.0,30.15,WSW,247,0.0,0.0,90,0.00,,,0.00,Rainwise IP-100,2013-07-17 01:34:00,
2013-07-16 21:39:00,74.2,71.0,30.15,WSW,247,0.0,0.0,90,0.00,,,0.00,Rainwise IP-100,2013-07-17 01:39:00,
2013-07-16 21:44:00,73.8,71.0,30.15,WSW,247,0.0,0.0,91,0.00,,,0.00,Rainwise IP-100,2013-07-17 01:44:00,
2013-07-16 21:49:00,73.5,71.0,30.15,WSW,247,0.0,0.0,91,0.00,,,0.00,Rainwise IP-100,2013-07-17 01:49:00,
2013-07-16 21:54:00,73.4,71.0,30.15,WNW,292,0.0,0.0,92,0.00,,,0.00,Rainwise IP-100,2013-07-17 01:54:00,
2013-07-16 21:59:00,73.1,70.0,30.15,WNW,292,0.0,0.0,92,0.00,,,0.00,Rainwise IP-100,2013-07-17 01:59:00,
2013-07-16 22:04:00,73.0,70.0,30.16,WNW,292,0.0,0.0,92,0.00,,,0.00,Rainwise IP-100,2013-07-17 02:04:00,
2013-07-16 22:09:00,73.0,71.0,30.16,WNW,292,0.0,0.0,93,0.00,,,0.00,Rainwise IP-100,2013-07-17 02:09:00,
2013-07-16 22:14:00,73.0,71.0,30.16,WNW,292,0.0,0.0,93,0.00,,,0.00,Rainwise IP-100,2013-07-17 02:14:00,
2013-07-16 22:19:00,72.9,71.0,30.16,WNW,292,0.0,0.0,94,0.00,,,0.00,Rainwise IP-100,2013-07-17 02:19:00,
2013-07-16 22:24:00,72.8,71.0,30.15,WNW,292,0.0,0.0,94,0.00,,,0.00,Rainwise IP-100,2013-07-17 02:24:00,
2013-07-16 22:29:00,72.9,71.0,30.15,South,180,2.0,3.0,95,0.00,,,0.00,Rainwise IP-100,2013-07-17 02:29:00,
2013-07-16 22:34:00,73.2,72.0,30.15,SSE,157,0.0,4.0,95,0.00,,,0.00,Rainwise IP-100,2013-07-17 02:34:00,
2013-07-16 22:39:00,73.7,72.0,30.15,SSE,157,0.0,3.0,95,0.00,,,0.00,Rainwise IP-100,2013-07-17 02:39:00,
2013-07-16 22:44:00,73.8,72.0,30.15,SSW,202,0.0,2.0,95,0.00,,,0.00,Rainwise IP-100,2013-07-17 02:44:00,
2013-07-16 22:49:00,74.0,72.0,30.16,SSE,157,2.0,2.0,95,0.00,,,0.00,Rainwise IP-100,2013-07-17 02:49:00,
2013-07-16 22:54:00,74.3,73.0,30.16,South,180,0.0,2.0,95,0.00,,,0.00,Rainwise IP-100,2013-07-17 02:54:00,
2013-07-16 22:59:00,74.3,73.0,30.16,South,180,0.0,0.0,95,0.00,,,0.00,Rainwise IP-100,2013-07-17 02:59:00,
2013-07-16 23:04:00,74.3,73.0,30.16,South,180,0.0,0.0,95,0.00,,,0.00,Rainwise IP-100,2013-07-17 03:04:00,
2013-07-16 23:09:00,74.2,73.0,30.16,South,180,0.0,0.0,95,0.00,,,0.00,Rainwise IP-100,2013-07-17 03:09:00,
2013-07-16 23:14:00,74.0,72.0,30.16,NW,315,1.0,1.0,95,0.00,,,0.00,Rainwise IP-100,2013-07-17 03:14:00,
2013-07-16 23:19:00,73.9,72.0,30.16,NW,315,0.0,1.0,95,0.00,,,0.00,Rainwise IP-100,2013-07-17 03:19:00,
2013-07-16 23:24:00,73.7,72.0,30.16,NW,315,0.0,0.0,95,0.00,,,0.00,Rainwise IP-100,2013-07-17 03:24:00,
2013-07-16 23:29:00,73.7,72.0,30.16,NW,315,0.0,0.0,95,0.00,,,0.00,Rainwise IP-100,2013-07-17 03:29:00,
2013-07-16 23:34:00,73.7,72.0,30.16,NW,315,0.0,0.0,95,0.00,,,0.00,Rainwise IP-100,2013-07-17 03:34:00,
2013-07-16 23:39:00,73.7,72.0,30.16,NW,315,0.0,0.0,95,0.00,,,0.00,Rainwise IP-100,2013-07-17 03:39:00,
2013-07-16 23:44:00,73.9,72.0,30.16,NW,315,0.0,0.0,95,0.00,,,0.00,Rainwise IP-100,2013-07-17 03:44:00,
2013-07-16 23:49:00,74.0,73.0,30.16,NW,315,0.0,0.0,96,0.00,,,0.00,Rainwise IP-100,2013-07-17 03:49:00,
2013-07-16 23:54:00,73.9,73.0,30.16,NW,315,0.0,0.0,96,0.00,,,0.00,Rainwise IP-100,2013-07-17 03:54:00,
2013-07-16 23:59:00,73.8,72.0,30.16,NW,315,0.0,0.0,96,0.00,,,0.00,Rainwise IP-100,2013-07-17 03:59:00,